| time (UTC) | temp C | wind direction | speed KPH | gust KPH | rain 1hr cm | rain 24hr cm | rain mn cm | humidity % | barometer mb |
| 20260506015507 | 21 | 163 | 0.0 | 0.0 | 0.00 | 0.00 | 0.00 | 57 | 1015.5 |
| 20260506015004 | 21 | 163 | 0.0 | 0.0 | 0.00 | 0.00 | 0.00 | 55 | 1015.5 |
| 20260506014501 | 21 | 163 | 0.0 | 0.0 | 0.00 | 0.00 | 0.00 | 55 | 1015.7 |
| 20260506013957 | 21 | 163 | 0.0 | 0.0 | 0.00 | 0.00 | 0.00 | 54 | 1015.7 |
| 20260506013455 | 21 | 162 | 0.0 | 0.0 | 0.00 | 0.00 | 0.00 | 54 | 1015.9 |
| 20260506012950 | 21 | 162 | 0.0 | 1.6 | 0.00 | 0.00 | 0.00 | 53 | 1015.7 |
| 20260506012447 | 22 | 165 | 1.6 | 1.6 | 0.00 | 0.00 | 0.00 | 53 | 1015.4 |
| 20260506011944 | 22 | 174 | 1.6 | 1.6 | 0.00 | 0.00 | 0.00 | 52 | 1015.7 |
| 20260506011442 | 22 | 174 | 0.0 | 1.6 | 0.00 | 0.00 | 0.00 | 51 | 1015.9 |
| 20260506010938 | 22 | 174 | 0.0 | 0.0 | 0.00 | 0.00 | 0.00 | 52 | 1015.8 |
| 20260506010438 | 22 | 174 | 0.0 | 0.0 | 0.00 | 0.00 | 0.00 | 55 | 1015.9 |
| 20260506005933 | 22 | 174 | 0.0 | 1.6 | 0.00 | 0.00 | 0.00 | 51 | 1015.7 |
| 20260506005432 | 22 | 175 | 0.0 | 0.0 | 0.00 | 0.00 | 0.00 | 50 | 1015.8 |
| 20260506004926 | 22 | 175 | 0.0 | 0.0 | 0.00 | 0.00 | 0.00 | 49 | 1015.6 |
| 20260506004425 | 22 | 175 | 0.0 | 0.0 | 0.00 | 0.00 | 0.00 | 48 | 1015.6 |
| 20260506003920 | 22 | 175 | 0.0 | 0.0 | 0.00 | 0.00 | 0.00 | 48 | 1015.7 |
| 20260506003417 | 22 | 176 | 0.0 | 1.6 | 0.00 | 0.00 | 0.00 | 48 | 1015.6 |
| 20260506002913 | 23 | 170 | 0.0 | 0.0 | 0.00 | 0.00 | 0.00 | 50 | 1015.5 |
| 20260506002409 | 23 | 170 | 1.6 | 1.6 | 0.00 | 0.00 | 0.00 | 47 | 1015.7 |
| 20260506001905 | 23 | 171 | 0.0 | 0.0 | 0.00 | 0.00 | 0.00 | 46 | 1015.7 |
| 20260506001402 | 23 | 171 | 0.0 | 1.6 | 0.00 | 0.00 | 0.00 | 46 | 1015.8 |
| 20260506000859 | 23 | 169 | 0.0 | 0.0 | 0.00 | 0.00 | 0.00 | 45 | 1015.8 |
| 20260506000357 | 23 | 169 | 0.0 | 0.0 | 0.00 | 0.00 | 0.00 | 45 | 1015.5 |
| 20260505235853 | 23 | 145 | 0.0 | 1.6 | 0.00 | 0.00 | 0.00 | 44 | 1015.6 |
| 20260505235351 | 24 | 171 | 0.0 | 1.6 | 0.00 | 0.00 | 0.00 | 44 | 1015.7 |
| 20260505234848 | 24 | 242 | 3.2 | 3.2 | 0.00 | 0.00 | 0.00 | 43 | 1015.4 |
| 20260505234346 | 24 | 188 | 1.6 | 3.2 | 0.00 | 0.00 | 0.00 | 43 | 1015.4 |
| 20260505233842 | 24 | 217 | 3.2 | 9.7 | 0.00 | 0.00 | 0.00 | 42 | 1015.6 |
| 20260505233340 | 24 | 228 | 3.2 | 6.4 | 0.00 | 0.00 | 0.00 | 42 | 1015.5 |
| 20260505232837 | 25 | 276 | 6.4 | 11.3 | 0.00 | 0.00 | 0.00 | 41 | 1015.4 |
| 20260505232335 | 25 | 228 | 4.8 | 6.4 | 0.00 | 0.00 | 0.00 | 41 | 1015.2 |
| 20260505231831 | 25 | 254 | 4.8 | 14.5 | 0.00 | 0.00 | 0.00 | 41 | 1015.2 |
| 20260505231329 | 25 | 237 | 6.4 | 11.3 | 0.00 | 0.00 | 0.00 | 40 | 1015.3 |
| 20260505230827 | 25 | 236 | 9.7 | 12.9 | 0.00 | 0.00 | 0.00 | 40 | 1015.2 |
| 20260505230324 | 25 | 257 | 11.3 | 12.9 | 0.00 | 0.00 | 0.00 | 39 | 1015.3 |
| 20260505225821 | 25 | 219 | 3.2 | 6.4 | 0.00 | 0.00 | 0.00 | 39 | 1015.4 |
| 20260505225318 | 25 | 187 | 3.2 | 6.4 | 0.00 | 0.00 | 0.00 | 39 | 1015.3 |
| 20260505224813 | 25 | 217 | 6.4 | 12.9 | 0.00 | 0.00 | 0.00 | 38 | 1015.2 |
| 20260505224311 | 25 | 200 | 4.8 | 12.9 | 0.00 | 0.00 | 0.00 | 38 | 1015.2 |
| 20260505223808 | 26 | 209 | 8.0 | 14.5 | 0.00 | 0.00 | 0.00 | 37 | 1015.5 |
| 20260505223305 | 26 | 237 | 4.8 | 6.4 | 0.00 | 0.00 | 0.00 | 37 | 1015.1 |
| 20260505222801 | 26 | 237 | 3.2 | 6.4 | 0.00 | 0.00 | 0.00 | 39 | 1015.1 |
| 20260505222257 | 26 | 248 | 3.2 | 11.3 | 0.00 | 0.00 | 0.00 | 38 | 1015.1 |
| 20260505221754 | 25 | 275 | 4.8 | 4.8 | 0.00 | 0.00 | 0.00 | 39 | 1015.3 |
| 20260505221251 | 26 | 170 | 4.8 | 6.4 | 0.00 | 0.00 | 0.00 | 38 | 1015.0 |
| 20260505220748 | 26 | 170 | 6.4 | 9.7 | 0.00 | 0.00 | 0.00 | 38 | 1015.3 |
| 20260505220245 | 26 | 223 | 3.2 | 16.1 | 0.00 | 0.00 | 0.00 | 38 | 1015.5 |
| 20260505215743 | 26 | 240 | 8.0 | 14.5 | 0.00 | 0.00 | 0.00 | 37 | 1015.4 |
| 20260505215241 | 26 | 238 | 9.7 | 12.9 | 0.00 | 0.00 | 0.00 | 37 | 1015.4 |
| 20260505214738 | 26 | 243 | 8.0 | 12.9 | 0.00 | 0.00 | 0.00 | 37 | 1015.5 |
| 20260505214235 | 26 | 227 | 3.2 | 11.3 | 0.00 | 0.00 | 0.00 | 38 | 1015.3 |
| 20260505213733 | 26 | 184 | 4.8 | 12.9 | 0.00 | 0.00 | 0.00 | 37 | 1015.6 |
| 20260505213230 | 26 | 237 | 8.0 | 9.7 | 0.00 | 0.00 | 0.00 | 36 | 1015.2 |
| 20260505212726 | 26 | 252 | 6.4 | 9.7 | 0.00 | 0.00 | 0.00 | 37 | 1015.4 |
| 20260505212223 | 26 | 203 | 9.7 | 16.1 | 0.00 | 0.00 | 0.00 | 36 | 1015.6 |
| 20260505211720 | 26 | 237 | 6.4 | 16.1 | 0.00 | 0.00 | 0.00 | 36 | 1015.4 |
| 20260505211218 | 25 | 248 | 6.4 | 14.5 | 0.00 | 0.00 | 0.00 | 36 | 1015.5 |
| 20260505210714 | 26 | 175 | 3.2 | 9.7 | 0.00 | 0.00 | 0.00 | 36 | 1015.7 |
| 20260505210211 | 26 | 260 | 9.7 | 12.9 | 0.00 | 0.00 | 0.00 | 36 | 1015.6 |
| 20260505205708 | 26 | 228 | 11.3 | 17.7 | 0.00 | 0.00 | 0.00 | 35 | 1015.5 |
| 20260505205206 | 26 | 286 | 4.8 | 4.8 | 0.00 | 0.00 | 0.00 | 36 | 1015.7 |
| 20260505204702 | 26 | 258 | 8.0 | 11.3 | 0.00 | 0.00 | 0.00 | 35 | 1015.7 |
| 20260505204200 | 26 | 245 | 6.4 | 14.5 | 0.00 | 0.00 | 0.00 | 35 | 1015.6 |
| 20260505203657 | 26 | 219 | 8.0 | 12.9 | 0.00 | 0.00 | 0.00 | 35 | 1015.9 |
| 20260505203154 | 26 | 161 | 1.6 | 14.5 | 0.00 | 0.00 | 0.00 | 37 | 1015.9 |
| 20260505202649 | 26 | 172 | 1.6 | 4.8 | 0.00 | 0.00 | 0.00 | 36 | 1015.8 |
| 20260505202146 | 26 | 170 | 1.6 | 14.5 | 0.00 | 0.00 | 0.00 | 36 | 1015.9 |
| 20260505201643 | 26 | 167 | 6.4 | 12.9 | 0.00 | 0.00 | 0.00 | 35 | 1015.9 |
| 20260505201141 | 26 | 185 | 3.2 | 11.3 | 0.00 | 0.00 | 0.00 | 36 | 1016.1 |
| 20260505200638 | 26 | 217 | 1.6 | 11.3 | 0.00 | 0.00 | 0.00 | 37 | 1016.1 |
| 20260505200135 | 25 | 266 | 9.7 | 14.5 | 0.00 | 0.00 | 0.00 | 37 | 1016.1 |
| 20260505195631 | 25 | 229 | 6.4 | 17.7 | 0.00 | 0.00 | 0.00 | 37 | 1016.3 |
| 20260505195129 | 25 | 173 | 4.8 | 11.3 | 0.00 | 0.00 | 0.00 | 37 | 1016.3 |
| 20260505194625 | 26 | 179 | 9.7 | 12.9 | 0.00 | 0.00 | 0.00 | 37 | 1016.5 |
| 20260505194121 | 26 | 138 | 1.6 | 12.9 | 0.00 | 0.00 | 0.00 | 36 | 1016.7 |
| 20260505193619 | 26 | 285 | 6.4 | 12.9 | 0.00 | 0.00 | 0.00 | 35 | 1016.6 |
| 20260505193116 | 26 | 204 | 3.2 | 6.4 | 0.00 | 0.00 | 0.00 | 36 | 1016.8 |
| 20260505192614 | 26 | 202 | 1.6 | 6.4 | 0.00 | 0.00 | 0.00 | 38 | 1017.0 |
| 20260505192111 | 25 | 278 | 6.4 | 11.3 | 0.00 | 0.00 | 0.00 | 37 | 1016.9 |
| 20260505191609 | 26 | 225 | 4.8 | 16.1 | 0.00 | 0.00 | 0.00 | 36 | 1017.2 |
| 20260505191107 | 26 | 212 | 6.4 | 16.1 | 0.00 | 0.00 | 0.00 | 37 | 1017.1 |
| 20260505190602 | 25 | 140 | 4.8 | 16.1 | 0.00 | 0.00 | 0.00 | 37 | 1017.1 |
| 20260505190058 | 25 | 305 | 11.3 | 16.1 | 0.00 | 0.00 | 0.00 | 38 | 1017.4 |
| 20260505185555 | 25 | 162 | 1.6 | 11.3 | 0.00 | 0.00 | 0.00 | 39 | 1017.2 |
| 20260505185051 | 25 | 225 | 4.8 | 9.7 | 0.00 | 0.00 | 0.00 | 38 | 1017.4 |
| 20260505184548 | 25 | 165 | 1.6 | 9.7 | 0.00 | 0.00 | 0.00 | 38 | 1017.3 |
| 20260505184045 | 25 | 226 | 4.8 | 9.7 | 0.00 | 0.00 | 0.00 | 38 | 1017.5 |
| 20260505183541 | 25 | 253 | 6.4 | 14.5 | 0.00 | 0.00 | 0.00 | 38 | 1017.5 |
| 20260505183039 | 25 | 300 | 9.7 | 14.5 | 0.00 | 0.00 | 0.00 | 38 | 1017.5 |
| 20260505182535 | 25 | 183 | 3.2 | 11.3 | 0.00 | 0.00 | 0.00 | 40 | 1017.4 |
| 20260505182032 | 25 | 123 | 6.4 | 17.7 | 0.00 | 0.00 | 0.00 | 38 | 1017.5 |
| 20260505181528 | 25 | 227 | 6.4 | 6.4 | 0.00 | 0.00 | 0.00 | 38 | 1017.5 |
| 20260505181026 | 25 | 247 | 6.4 | 6.4 | 0.00 | 0.00 | 0.00 | 38 | 1017.6 |
| 20260505180521 | 25 | 183 | 1.6 | 14.5 | 0.00 | 0.00 | 0.00 | 39 | 1018.0 |
| 20260505180021 | 24 | 269 | 3.2 | 14.5 | 0.00 | 0.00 | 0.00 | 39 | 1018.0 |
| 20260505175515 | 25 | 254 | 17.7 | 20.9 | 0.00 | 0.00 | 0.00 | 37 | 1018.1 |
| 20260505175012 | 25 | 268 | 6.4 | 12.9 | 0.00 | 0.00 | 0.00 | 37 | 1018.3 |
| 20260505174509 | 24 | 257 | 8.0 | 16.1 | 0.00 | 0.00 | 0.00 | 38 | 1018.2 |
| 20260505174005 | 25 | 262 | 17.7 | 20.9 | 0.00 | 0.00 | 0.00 | 37 | 1018.4 |
| 20260505173502 | 24 | 225 | 4.8 | 12.9 | 0.00 | 0.00 | 0.00 | 37 | 1018.4 |
| 20260505172958 | 24 | 255 | 6.4 | 14.5 | 0.00 | 0.00 | 0.00 | 37 | 1018.6 |
| 20260505172457 | 24 | 241 | 6.4 | 14.5 | 0.00 | 0.00 | 0.00 | 39 | 1018.7 |
| 20260505171956 | 25 | 246 | 6.4 | 14.5 | 0.00 | 0.00 | 0.00 | 39 | 1018.7 |
| 20260505171453 | 23 | 255 | 9.7 | 12.9 | 0.00 | 0.00 | 0.00 | 43 | 1018.6 |
| 20260505170950 | 24 | 235 | 6.4 | 11.3 | 0.00 | 0.00 | 0.00 | 40 | 1018.6 |
| 20260505170446 | 23 | 236 | 4.8 | 12.9 | 0.00 | 0.00 | 0.00 | 41 | 1018.3 |
| 20260505165942 | 23 | 244 | 6.4 | 11.3 | 0.00 | 0.00 | 0.00 | 42 | 1018.5 |
| 20260505165438 | 23 | 230 | 1.6 | 3.2 | 0.00 | 0.00 | 0.00 | 42 | 1018.4 |
| 20260505164933 | 23 | 222 | 4.8 | 9.7 | 0.00 | 0.00 | 0.00 | 43 | 1018.4 |
| 20260505164430 | 23 | 259 | 4.8 | 6.4 | 0.00 | 0.00 | 0.00 | 42 | 1018.3 |
| 20260505163928 | 23 | 225 | 1.6 | 12.9 | 0.00 | 0.00 | 0.00 | 43 | 1018.4 |
| 20260505163427 | 23 | 180 | 1.6 | 9.7 | 0.00 | 0.00 | 0.00 | 44 | 1018.3 |
| 20260505162926 | 23 | 254 | 3.2 | 4.8 | 0.00 | 0.00 | 0.00 | 44 | 1018.6 |
| 20260505162421 | 23 | 208 | 3.2 | 11.3 | 0.00 | 0.00 | 0.00 | 47 | 1018.9 |
| 20260505161918 | 22 | 250 | 6.4 | 6.4 | 0.00 | 0.00 | 0.00 | 48 | 1018.8 |
| 20260505161415 | 22 | 250 | 6.4 | 9.7 | 0.00 | 0.00 | 0.00 | 49 | 1018.9 |
| 20260505160912 | 22 | 249 | 6.4 | 14.5 | 0.00 | 0.00 | 0.00 | 47 | 1018.8 |
| 20260505160410 | 22 | 253 | 9.7 | 12.9 | 0.00 | 0.00 | 0.00 | 48 | 1019.0 |
| 20260505153349 | 21 | 234 | 6.4 | 9.7 | 0.00 | 0.00 | 0.00 | 53 | 1019.2 |
| 20260505152846 | 21 | 244 | 4.8 | 6.4 | 0.00 | 0.00 | 0.00 | 52 | 1019.2 |
| 20260505152344 | 22 | 215 | 1.6 | 1.6 | 0.00 | 0.00 | 0.00 | 52 | 1019.1 |
| 20260505151843 | 22 | 239 | 8.0 | 9.7 | 0.00 | 0.00 | 0.00 | 50 | 1019.0 |
| 20260505151340 | 21 | 160 | 0.0 | 3.2 | 0.00 | 0.00 | 0.00 | 54 | 1019.2 |
| 20260505150837 | 21 | 188 | 1.6 | 4.8 | 0.00 | 0.00 | 0.00 | 56 | 1019.2 |
| 20260505150335 | 20 | 258 | 3.2 | 6.4 | 0.00 | 0.00 | 0.00 | 58 | 1019.3 |
| 20260505140258 | 18 | 251 | 0.0 | 4.8 | 0.00 | 0.00 | 0.00 | 65 | 1019.1 |
| 20260505130222 | 15 | 168 | 1.6 | 6.4 | 0.00 | 0.00 | 0.00 | 76 | 1018.6 |
| 20260505124712 | 15 | 166 | 1.6 | 3.2 | 0.00 | 0.00 | 0.00 | 76 | 1018.5 |
| 20260505124209 | 15 | 166 | 3.2 | 3.2 | 0.00 | 0.00 | 0.00 | 75 | 1018.7 |
| 20260505123705 | 15 | 187 | 3.2 | 4.8 | 0.00 | 0.00 | 0.00 | 75 | 1018.7 |
| 20260505123202 | 15 | 181 | 1.6 | 4.8 | 0.00 | 0.00 | 0.00 | 74 | 1018.7 |
| 20260505122658 | 15 | 179 | 1.6 | 3.2 | 0.00 | 0.00 | 0.00 | 72 | 1018.6 |
| 20260505122155 | 16 | 178 | 1.6 | 3.2 | 0.00 | 0.00 | 0.00 | 71 | 1018.6 |
| 20260505121652 | 16 | 162 | 0.0 | 0.0 | 0.00 | 0.00 | 0.00 | 70 | 1018.5 |
| 20260505121149 | 16 | 163 | 0.0 | 0.0 | 0.00 | 0.00 | 0.00 | 70 | 1018.5 |
| 20260505120645 | 16 | 162 | 0.0 | 0.0 | 0.00 | 0.00 | 0.00 | 71 | 1018.6 |
| 20260505120142 | 15 | 163 | 0.0 | 0.0 | 0.00 | 0.00 | 0.00 | 72 | 1018.5 |
| 20260505115641 | 14 | 162 | 0.0 | 0.0 | 0.00 | 0.00 | 0.00 | 76 | 1018.4 |
| 20260505115139 | 13 | 162 | 0.0 | 0.0 | 0.00 | 0.00 | 0.00 | 82 | 1018.5 |
| 20260505114636 | 11 | 162 | 0.0 | 0.0 | 0.00 | 0.00 | 0.00 | 88 | 1018.5 |
| 20260505114132 | 11 | 161 | 0.0 | 0.0 | 0.00 | 0.00 | 0.00 | 89 | 1018.4 |
| 20260505113629 | 10 | 160 | 0.0 | 0.0 | 0.00 | 0.00 | 0.00 | 89 | 1018.4 |
| 20260505113125 | 10 | 160 | 0.0 | 0.0 | 0.00 | 0.00 | 0.00 | 90 | 1018.1 |
| 20260505112621 | 10 | 160 | 0.0 | 0.0 | 0.00 | 0.00 | 0.00 | 90 | 1018.0 |
| 20260505112121 | 10 | 160 | 0.0 | 0.0 | 0.00 | 0.00 | 0.00 | 90 | 1018.1 |
| 20260505111619 | 10 | 160 | 0.0 | 0.0 | 0.00 | 0.00 | 0.00 | 90 | 1018.2 |
| 20260505111116 | 10 | 160 | 0.0 | 0.0 | 0.00 | 0.00 | 0.00 | 89 | 1017.9 |
| 20260505110612 | 9 | 160 | 0.0 | 0.0 | 0.00 | 0.00 | 0.00 | 89 | 1018.1 |
| 20260505110109 | 9 | 160 | 0.0 | 0.0 | 0.00 | 0.00 | 0.00 | 89 | 1018.1 |
| 20260505102045 | 10 | 160 | 0.0 | 0.0 | 0.00 | 0.00 | 0.00 | 85 | 1018.0 |
| 20260505101543 | 10 | 159 | 0.0 | 1.6 | 0.00 | 0.00 | 0.00 | 85 | 1017.8 |
| 20260505101039 | 10 | 170 | 0.0 | 0.0 | 0.00 | 0.00 | 0.00 | 85 | 1017.8 |
| 20260505100536 | 10 | 172 | 0.0 | 0.0 | 0.00 | 0.00 | 0.00 | 85 | 1017.9 |
| 20260505100033 | 10 | 172 | 0.0 | 0.0 | 0.00 | 0.00 | 0.00 | 84 | 1017.7 |
| 20260505095529 | 10 | 172 | 0.0 | 0.0 | 0.00 | 0.00 | 0.00 | 83 | 1017.8 |
| 20260505095025 | 10 | 172 | 0.0 | 0.0 | 0.00 | 0.00 | 0.00 | 82 | 1017.7 |
| 20260505094522 | 10 | 173 | 0.0 | 0.0 | 0.00 | 0.00 | 0.00 | 82 | 1017.6 |
| 20260505094018 | 10 | 173 | 0.0 | 0.0 | 0.00 | 0.00 | 0.00 | 81 | 1017.9 |
| 20260505093515 | 10 | 173 | 0.0 | 0.0 | 0.00 | 0.00 | 0.00 | 81 | 1017.8 |
| 20260505093012 | 11 | 173 | 0.0 | 0.0 | 0.00 | 0.00 | 0.00 | 81 | 1017.9 |
| 20260505092510 | 11 | 173 | 0.0 | 0.0 | 0.00 | 0.00 | 0.00 | 80 | 1017.5 |
| 20260505092008 | 11 | 173 | 0.0 | 0.0 | 0.00 | 0.00 | 0.00 | 79 | 1017.7 |
| 20260505091504 | 11 | 173 | 0.0 | 0.0 | 0.00 | 0.00 | 0.00 | 78 | 1017.6 |
| 20260505091003 | 11 | 174 | 0.0 | 1.6 | 0.00 | 0.00 | 0.00 | 78 | 1017.6 |
| 20260505090500 | 10 | 174 | 0.0 | 1.6 | 0.00 | 0.00 | 0.00 | 80 | 1017.6 |
| 20260505085957 | 10 | 169 | 0.0 | 0.0 | 0.00 | 0.00 | 0.00 | 80 | 1017.7 |
| 20260505085455 | 10 | 165 | 0.0 | 0.0 | 0.00 | 0.00 | 0.00 | 80 | 1017.5 |
| 20260505084954 | 10 | 165 | 0.0 | 0.0 | 0.00 | 0.00 | 0.00 | 79 | 1017.6 |
| 20260505084451 | 11 | 165 | 0.0 | 0.0 | 0.00 | 0.00 | 0.00 | 79 | 1017.7 |
| 20260505083949 | 11 | 165 | 0.0 | 0.0 | 0.00 | 0.00 | 0.00 | 79 | 1017.5 |
| 20260505083446 | 11 | 165 | 0.0 | 0.0 | 0.00 | 0.00 | 0.00 | 79 | 1017.3 |
| 20260505082942 | 11 | 165 | 0.0 | 0.0 | 0.00 | 0.00 | 0.00 | 77 | 1017.3 |
| 20260505082438 | 11 | 165 | 0.0 | 0.0 | 0.00 | 0.00 | 0.00 | 77 | 1017.5 |
| 20260505081936 | 12 | 165 | 0.0 | 1.6 | 0.00 | 0.00 | 0.00 | 75 | 1017.3 |
| 20260505081432 | 12 | 165 | 0.0 | 1.6 | 0.00 | 0.00 | 0.00 | 73 | 1017.3 |
| 20260505080929 | 12 | 165 | 0.0 | 1.6 | 0.00 | 0.00 | 0.00 | 73 | 1017.4 |
| 20260505080425 | 12 | 166 | 1.6 | 3.2 | 0.00 | 0.00 | 0.00 | 70 | 1017.3 |
| 20260505075920 | 12 | 165 | 3.2 | 3.2 | 0.00 | 0.00 | 0.00 | 70 | 1017.4 |
| 20260505075417 | 12 | 163 | 0.0 | 3.2 | 0.00 | 0.00 | 0.00 | 70 | 1017.2 |
| 20260505074915 | 13 | 167 | 0.0 | 0.0 | 0.00 | 0.00 | 0.00 | 69 | 1017.3 |
| 20260505074412 | 13 | 167 | 0.0 | 1.6 | 0.00 | 0.00 | 0.00 | 68 | 1017.2 |
| 20260505073909 | 13 | 164 | 1.6 | 3.2 | 0.00 | 0.00 | 0.00 | 68 | 1017.3 |
| 20260505073407 | 12 | 168 | 0.0 | 3.2 | 0.00 | 0.00 | 0.00 | 69 | 1017.1 |
| 20260505072904 | 12 | 174 | 3.2 | 4.8 | 0.00 | 0.00 | 0.00 | 72 | 1017.0 |
| 20260505072359 | 11 | 172 | 0.0 | 1.6 | 0.00 | 0.00 | 0.00 | 76 | 1017.2 |
| 20260505071856 | 11 | 172 | 0.0 | 0.0 | 0.00 | 0.00 | 0.00 | 76 | 1017.4 |
| 20260505071352 | 11 | 172 | 0.0 | 0.0 | 0.00 | 0.00 | 0.00 | 76 | 1017.3 |
| 20260505070851 | 12 | 172 | 0.0 | 0.0 | 0.00 | 0.00 | 0.00 | 76 | 1017.5 |
| 20260505070347 | 12 | 172 | 0.0 | 0.0 | 0.00 | 0.00 | 0.00 | 74 | 1017.3 |
| 20260505065842 | 12 | 172 | 0.0 | 0.0 | 0.00 | 0.00 | 0.00 | 74 | 1017.4 |
| 20260505065339 | 12 | 172 | 0.0 | 0.0 | 0.00 | 0.00 | 0.00 | 76 | 1017.3 |
| 20260505064836 | 12 | 174 | 0.0 | 0.0 | 0.00 | 0.00 | 0.00 | 74 | 1017.0 |
| 20260505064333 | 12 | 167 | 1.6 | 1.6 | 0.00 | 0.00 | 0.00 | 75 | 1017.2 |
| 20260505063831 | 13 | 178 | 1.6 | 1.6 | 0.00 | 0.00 | 0.00 | 68 | 1017.2 |
| 20260505063327 | 13 | 178 | 0.0 | 0.0 | 0.00 | 0.00 | 0.00 | 66 | 1017.1 |
| 20260505062824 | 13 | 178 | 0.0 | 0.0 | 0.00 | 0.00 | 0.00 | 65 | 1017.1 |
| 20260505062321 | 14 | 178 | 0.0 | 0.0 | 0.00 | 0.00 | 0.00 | 64 | 1017.3 |
| 20260505061818 | 14 | 177 | 0.0 | 0.0 | 0.00 | 0.00 | 0.00 | 63 | 1017.2 |
| 20260505061316 | 13 | 180 | 1.6 | 1.6 | 0.00 | 0.00 | 0.00 | 63 | 1017.1 |
| 20260505060813 | 13 | 175 | 0.0 | 1.6 | 0.00 | 0.00 | 0.00 | 67 | 1017.2 |
| 20260505060310 | 12 | 167 | 0.0 | 0.0 | 0.00 | 0.00 | 0.00 | 69 | 1017.4 |
| 20260505055806 | 12 | 167 | 0.0 | 0.0 | 0.00 | 0.00 | 0.00 | 71 | 1017.2 |
| 20260505055303 | 12 | 167 | 0.0 | 0.0 | 0.00 | 0.00 | 0.00 | 69 | 1017.0 |
| 20260505054759 | 12 | 167 | 0.0 | 0.0 | 0.00 | 0.00 | 0.00 | 70 | 1017.4 |
| 20260505054257 | 12 | 167 | 0.0 | 0.0 | 0.00 | 0.00 | 0.00 | 71 | 1017.3 |
| 20260505053755 | 13 | 167 | 0.0 | 0.0 | 0.00 | 0.00 | 0.00 | 71 | 1017.2 |
| 20260505053251 | 13 | 167 | 0.0 | 0.0 | 0.00 | 0.00 | 0.00 | 69 | 1017.3 |
| 20260505052748 | 13 | 167 | 0.0 | 0.0 | 0.00 | 0.00 | 0.00 | 68 | 1017.2 |
| 20260505052245 | 13 | 167 | 0.0 | 0.0 | 0.00 | 0.00 | 0.00 | 70 | 1017.3 |
| 20260505051742 | 13 | 167 | 0.0 | 0.0 | 0.00 | 0.00 | 0.00 | 69 | 1017.3 |
| 20260505051240 | 13 | 169 | 0.0 | 0.0 | 0.00 | 0.00 | 0.00 | 71 | 1017.4 |
| 20260505050738 | 13 | 169 | 0.0 | 0.0 | 0.00 | 0.00 | 0.00 | 71 | 1017.5 |
| 20260505050236 | 13 | 169 | 0.0 | 0.0 | 0.00 | 0.00 | 0.00 | 71 | 1017.5 |
| 20260505041706 | 13 | 169 | 0.0 | 0.0 | 0.00 | 0.00 | 0.00 | 72 | 1017.5 |
| 20260505041203 | 13 | 169 | 0.0 | 0.0 | 0.00 | 0.00 | 0.00 | 71 | 1017.4 |
| 20260505040700 | 13 | 169 | 0.0 | 0.0 | 0.00 | 0.00 | 0.00 | 72 | 1017.6 |
| 20260505040157 | 13 | 168 | 0.0 | 0.0 | 0.00 | 0.00 | 0.00 | 72 | 1017.5 |
| 20260505035654 | 13 | 168 | 0.0 | 0.0 | 0.00 | 0.00 | 0.00 | 71 | 1017.7 |
| 20260505035150 | 14 | 168 | 0.0 | 0.0 | 0.00 | 0.00 | 0.00 | 70 | 1017.7 |
| 20260505034647 | 14 | 168 | 0.0 | 0.0 | 0.00 | 0.00 | 0.00 | 70 | 1017.6 |
| 20260505034144 | 14 | 168 | 0.0 | 0.0 | 0.00 | 0.00 | 0.00 | 68 | 1017.7 |
| 20260505033640 | 15 | 168 | 0.0 | 0.0 | 0.00 | 0.00 | 0.00 | 69 | 1017.7 |
| 20260505033139 | 15 | 168 | 0.0 | 0.0 | 0.00 | 0.00 | 0.00 | 68 | 1017.7 |
| 20260505032637 | 15 | 168 | 0.0 | 0.0 | 0.00 | 0.00 | 0.00 | 67 | 1017.7 |
| 20260505032132 | 15 | 168 | 0.0 | 0.0 | 0.00 | 0.00 | 0.00 | 65 | 1017.5 |
| 20260505031630 | 15 | 168 | 0.0 | 0.0 | 0.00 | 0.00 | 0.00 | 64 | 1017.5 |
| 20260505031125 | 15 | 168 | 0.0 | 0.0 | 0.00 | 0.00 | 0.00 | 63 | 1017.7 |
| 20260505030623 | 16 | 168 | 0.0 | 0.0 | 0.00 | 0.00 | 0.00 | 61 | 1017.6 |
| 20260505030119 | 16 | 168 | 0.0 | 0.0 | 0.00 | 0.00 | 0.00 | 60 | 1017.8 |
| 20260505025614 | 16 | 168 | 0.0 | 0.0 | 0.00 | 0.00 | 0.00 | 60 | 1017.7 |
| 20260505025114 | 16 | 168 | 0.0 | 0.0 | 0.00 | 0.00 | 0.00 | 59 | 1017.7 |
| 20260505024610 | 17 | 168 | 0.0 | 0.0 | 0.00 | 0.00 | 0.00 | 57 | 1017.7 |
| 20260505024108 | 17 | 168 | 0.0 | 0.0 | 0.00 | 0.00 | 0.00 | 56 | 1017.6 |
| 20260505023605 | 17 | 169 | 0.0 | 1.6 | 0.00 | 0.00 | 0.00 | 56 | 1017.6 |
| 20260505023102 | 17 | 166 | 0.0 | 1.6 | 0.00 | 0.00 | 0.00 | 55 | 1017.4 |
| 20260505022600 | 17 | 166 | 1.6 | 1.6 | 0.00 | 0.00 | 0.00 | 55 | 1017.5 |
| 20260505022056 | 17 | 166 | 0.0 | 1.6 | 0.00 | 0.00 | 0.00 | 55 | 1017.4 |
| 20260505021553 | 17 | 166 | 0.0 | 1.6 | 0.00 | 0.00 | 0.00 | 53 | 1017.5 |
| 20260505021050 | 17 | 166 | 0.0 | 3.2 | 0.00 | 0.00 | 0.00 | 53 | 1017.2 |
| 20260505020550 | 17 | 167 | 1.6 | 1.6 | 0.00 | 0.00 | 0.00 | 55 | 1017.3 |
| 20260505020047 | 17 | 165 | 0.0 | 1.6 | 0.00 | 0.00 | 0.00 | 57 | 1017.5 |